• In Belarus
  • List of Countries
  • For 7 days
  • Water Temperature
  • Weather Map
  • Weather Widgets
  • user-avatar
    Login

    Hourly Weather Sumgayit

    Today, 27 February, Thursday

    Time Temperature Precipitation Wind Pressure Humidity
    00:00 +2°C° 0 mm 9 mps 743 mmHg 78%
    01:00 +2°C° 0 mm 9 mps 743 mmHg 80%
    02:00 +2°C° 0 mm 9 mps 742 mmHg 82%
    03:00 +1°C° 0 mm 10 mps 742 mmHg 85%
    04:00 +1°C° 0 mm 9 mps 742 mmHg 84%
    05:00 +1°C° 0 mm 9 mps 742 mmHg 84%
    06:00 +1°C° 0 mm 9 mps 742 mmHg 84%
    07:00 +2°C° 0 mm 10 mps 742 mmHg 78%
    08:00 +3°C° 0 mm 10 mps 742 mmHg 72%
    09:00 +4°C° 0 mm 11 mps 742 mmHg 63%
    10:00 +6°C° 0 mm 11 mps 742 mmHg 59%
    11:00 +7°C° 0 mm 11 mps 742 mmHg 54%
    12:00 +9°C° 0 mm 11 mps 742 mmHg 50%
    13:00 +9°C° 0 mm 11 mps 741 mmHg 50%
    14:00 +9°C° 0 mm 11 mps 741 mmHg 51%
    15:00 +9°C° 0 mm 11 mps 740 mmHg 52%
    16:00 +8°C° 0 mm 11 mps 740 mmHg 59%
    17:00 +7°C° 0 mm 11 mps 740 mmHg 65%
    18:00 +6°C° 0 mm 11 mps 740 mmHg 71%
    19:00 +6°C° 0 mm 10 mps 740 mmHg 75%
    20:00 +5°C° 0 mm 10 mps 739 mmHg 79%
    21:00 +5°C° 0 mm 9 mps 739 mmHg 83%
    22:00 +4°C° 0 mm 8 mps 739 mmHg 85%
    23:00 +4°C° 0 mm 8 mps 738 mmHg 86%

    Tomorrow, 28 February, Friday

    Time Temperature Precipitation Wind Pressure Humidity
    00:00 +4°C° 0 mm 7 mps 738 mmHg 88%
    01:00 +4°C° 0 mm 7 mps 737 mmHg 88%
    02:00 +4°C° 0 mm 7 mps 737 mmHg 89%
    03:00 +4°C° 0 mm 7 mps 736 mmHg 89%
    04:00 +4°C° 0 mm 7 mps 736 mmHg 88%
    05:00 +4°C° 0 mm 6 mps 736 mmHg 86%
    06:00 +4°C° 0 mm 6 mps 735 mmHg 85%
    07:00 +5°C° 0 mm 7 mps 735 mmHg 76%
    08:00 +6°C° 0 mm 7 mps 735 mmHg 68%
    09:00 +8°C° 0 mm 7 mps 735 mmHg 60%
    10:00 +10°C° 0 mm 8 mps 734 mmHg 53%
    11:00 +11°C° 0 mm 8 mps 734 mmHg 46%
    12:00 +13°C° 0 mm 9 mps 733 mmHg 39%
    13:00 +13°C° 0 mm 9 mps 733 mmHg 38%
    14:00 +15°C° 0 mm 9 mps 732 mmHg 37%
    15:00 +15°C° 0 mm 9 mps 732 mmHg 35%
    16:00 +13°C° 0 mm 9 mps 732 mmHg 37%
    17:00 +13°C° 0 mm 8 mps 732 mmHg 39%
    18:00 +12°C° 0 mm 8 mps 732 mmHg 41%
    19:00 +11°C° 0 mm 6 mps 733 mmHg 44%
    20:00 +12°C° 0 mm 4 mps 733 mmHg 46%
    21:00 +12°C° 0 mm 1 mps 734 mmHg 49%
    22:00 +10°C° 0 mm 5 mps 735 mmHg 51%
    23:00 +10°C° 0 mm 9 mps 736 mmHg 54%

    Day after tomorrow, 29 February, Saturday

    Time Temperature Precipitation Wind Pressure Humidity
    00:00 +9°C° 0 mm 12 mps 736 mmHg 57%
    01:00 +8°C° 0 mm 12 mps 737 mmHg 58%
    02:00 +8°C° 0 mm 11 mps 737 mmHg 58%
    03:00 +8°C° 0 mm 10 mps 737 mmHg 59%
    04:00 +7°C° 0 mm 9 mps 738 mmHg 60%
    05:00 +7°C° 0 mm 8 mps 738 mmHg 62%
    06:00 +6°C° 0 mm 7 mps 739 mmHg 63%
    07:00 +8°C° 0 mm 6 mps 739 mmHg 60%
    08:00 +9°C° 0 mm 6 mps 739 mmHg 56%
    09:00 +10°C° 0 mm 5 mps 740 mmHg 53%
    10:00 +10°C° 0 mm 5 mps 739 mmHg 51%
    11:00 +12°C° 0 mm 5 mps 739 mmHg 48%
    12:00 +13°C° 0 mm 5 mps 739 mmHg 46%
    13:00 +12°C° 0 mm 5 mps 738 mmHg 47%
    14:00 +12°C° 0 mm 4 mps 737 mmHg 48%
    15:00 +12°C° 0 mm 4 mps 737 mmHg 49%
    16:00 +10°C° 0 mm 4 mps 737 mmHg 54%
    17:00 +9°C° 0 mm 3 mps 737 mmHg 59%
    18:00 +8°C° 0 mm 3 mps 736 mmHg 64%
    19:00 +8°C° 0 mm 2 mps 736 mmHg 66%
    20:00 +8°C° 0 mm 1 mps 736 mmHg 67%
    21:00 +8°C° 0 mm 1 mps 736 mmHg 69%
    22:00 +8°C° 0 mm 1 mps 736 mmHg 69%
    23:00 +8°C° 0 mm 1 mps 735 mmHg 70%

    1 March, Sunday

    Time Temperature Precipitation Wind Pressure Humidity
    00:00 +8°C° 0 mm 1 mps 735 mmHg 71%
    01:00 +7°C° 0 mm 1 mps 735 mmHg 72%
    02:00 +7°C° 0 mm 1 mps 735 mmHg 73%
    03:00 +7°C° 0 mm 1 mps 734 mmHg 73%
    04:00 +7°C° 0 mm 1 mps 735 mmHg 76%
    05:00 +6°C° 0 mm 1 mps 735 mmHg 79%
    06:00 +5°C° 0 mm 2 mps 735 mmHg 82%
    07:00 +5°C° 0 mm 3 mps 736 mmHg 76%
    08:00 +5°C° 0 mm 5 mps 737 mmHg 71%
    09:00 +5°C° 0 mm 7 mps 737 mmHg 66%
    10:00 +6°C° 0 mm 8 mps 738 mmHg 62%
    11:00 +7°C° 0 mm 9 mps 738 mmHg 57%
    12:00 +8°C° 0 mm 10 mps 738 mmHg 53%
    13:00 +8°C° 0 mm 11 mps 739 mmHg 53%
    14:00 +8°C° 0 mm 12 mps 739 mmHg 53%
    15:00 +8°C° 0 mm 13 mps 739 mmHg 53%
    16:00 +7°C° 0 mm 13 mps 740 mmHg 56%
    17:00 +5°C° 0 mm 14 mps 740 mmHg 59%
    18:00 +4°C° 0 mm 15 mps 741 mmHg 62%
    19:00 +4°C° 0 mm 15 mps 741 mmHg 64%
    20:00 +2°C° 0 mm 15 mps 742 mmHg 65%
    21:00 +3°C° 0 mm 14 mps 743 mmHg 66%
    22:00 +3°C° 0 mm 14 mps 743 mmHg 66%
    23:00 +3°C° 0 mm 14 mps 743 mmHg 65%

    2 March, Monday

    Time Temperature Precipitation Wind Pressure Humidity
    00:00 +3°C° 0 mm 14 mps 743 mmHg 65%
    01:00 +1°C° 0 mm 13 mps 744 mmHg 64%
    02:00 +2°C° 0 mm 12 mps 744 mmHg 63%
    03:00 +2°C° 0 mm 11 mps 744 mmHg 62%
    04:00 +2°C° 0 mm 10 mps 744 mmHg 61%
    05:00 +2°C° 0 mm 10 mps 744 mmHg 61%
    06:00 +2°C° 0 mm 9 mps 745 mmHg 61%
    07:00 +2°C° 0 mm 9 mps 745 mmHg 59%
    08:00 +3°C° 0 mm 9 mps 746 mmHg 57%
    09:00 +3°C° 0 mm 9 mps 746 mmHg 56%
    10:00 +3°C° 0 mm 9 mps 746 mmHg 54%
    11:00 +5°C° 0 mm 8 mps 746 mmHg 53%
    12:00 +5°C° 0 mm 8 mps 746 mmHg 52%
    13:00 +5°C° 0 mm 7 mps 746 mmHg 54%
    14:00 +5°C° 0 mm 7 mps 745 mmHg 57%
    15:00 +5°C° 0 mm 7 mps 745 mmHg 59%
    16:00 +4°C° 0 mm 7 mps 745 mmHg 62%
    17:00 +4°C° 0 mm 6 mps 746 mmHg 64%
    18:00 +4°C° 0 mm 6 mps 746 mmHg 67%
    19:00 +3°C° 0 mm 5 mps 746 mmHg 68%
    20:00 +4°C° 0 mm 4 mps 746 mmHg 70%
    21:00 +4°C° 0 mm 3 mps 746 mmHg 71%
    22:00 +4°C° 0 mm 3 mps 746 mmHg 74%
    23:00 +4°C° 0 mm 2 mps 746 mmHg 77%

    3 March, Tuesday

    Time Temperature Precipitation Wind Pressure Humidity
    00:00 +5°C° 0 mm 1 mps 746 mmHg 80%
    01:00 +5°C° 0 mm 1 mps 745 mmHg 81%
    02:00 +5°C° 0 mm 1 mps 745 mmHg 82%
    03:00 +4°C° 0 mm 1 mps 745 mmHg 84%
    04:00 +4°C° 0 mm 1 mps 745 mmHg 84%
    05:00 +4°C° 0 mm 1 mps 745 mmHg 84%
    06:00 +3°C° 0 mm 2 mps 745 mmHg 84%
    07:00 +4°C° 0 mm 2 mps 746 mmHg 80%
    08:00 +4°C° 0 mm 3 mps 746 mmHg 75%
    09:00 +5°C° 0 mm 3 mps 747 mmHg 71%
    10:00 +6°C° 0 mm 4 mps 746 mmHg 67%
    11:00 +8°C° 0 mm 5 mps 746 mmHg 62%
    12:00 +9°C° 0 mm 5 mps 746 mmHg 58%
    13:00 +9°C° 0 mm 5 mps 746 mmHg 58%
    14:00 +9°C° 0 mm 5 mps 746 mmHg 58%
    15:00 +9°C° 0 mm 5 mps 745 mmHg 59%
    16:00 +8°C° 0 mm 5 mps 745 mmHg 63%
    17:00 +8°C° 0 mm 5 mps 746 mmHg 68%
    18:00 +7°C° 0 mm 4 mps 746 mmHg 72%
    19:00 +6°C° 0 mm 4 mps 746 mmHg 74%
    20:00 +7°C° 0 mm 3 mps 747 mmHg 76%
    21:00 +7°C° 0 mm 3 mps 747 mmHg 78%
    22:00 +5°C° 0 mm 3 mps 747 mmHg 80%
    23:00 +6°C° 0 mm 2 mps 747 mmHg 81%
    Show more